STARLINK-3776, 52288

Orbit data source: Space-Track

STARLINK-3776, 52288 is a payload satellite owned by SpaceX/Seattle (US) in LEO that was launched on Thu, 21 Apr 2022 UTC via an FALCON 9 launch vehicle from the Air Force Eastern Test Range (AFETR). Payload-class satellites include a variety of spacecraft equipped with specific instruments for various scientific and technological missions. These include communications satellites like Starlink; space stations such as the ISS; scientific satellites like the Hubble; Earth observation satellites from companies like Planet Labs, Umbra, and HawkEye 360; GPS; miniature CubeSats for education and research; and military/defense satellites.

Loading next visibility...
Identifier
52288, 2022-041AD
Orbit
LEO
Country
Flag of USUS
Related business
Manufacturer
SpaceX/Seattle
Mission
Operational Commercial Communications
Bus & Motor
STARLINK, Unknown motor
Mass
297 kg wet, ~275 kg dry
Launch date (UTC)
2022-04-21 (4 years ago)
Launch vehicle
FALCON 9
Launch site
Air Force Eastern Test Range (AFETR)
Object type
Payload
Rocket body
Debris
Shape & HBR
Box + 1 Pan, 10.1 m
Radar Cross Section
11.087 m², Large (>1 m²)

Expand to show TLE details & history
Last TLE update: 9 hours ago

TLE from 9 hours ago
0 STARLINK-3776
1 52288U 22041AD  26130.16891219 -.00000859  00000-0 -35926-4 0  9996
2 52288  53.2159 183.1306 0001236  88.1663 271.9471 15.08835434223782
Epoch: 2026-05-10T04:03Z
TLE epoch observation values (Epoch: 2026-05-10T04:03:14.013Z)
Latitude
0.00002°
Longitude
-105.65363°
Altitude
540.626 km
Speed
7.593 km/s
True Right ascension
12h 12m 31s
True Declination
0° 00' 00"
Sunlit
Object was in full shadow at epoch
Visualization orbit readout
Latitude
Unknown
Longitude
Unknown
Altitude
Unknown
Speed
Unknown
Apparent Right ascension
Unknown
Apparent Declination
Unknown
Sunlit
N/A
Visualization observer readout
Local Sidereal Time
21:22:03
Azimuth
Unknown
Elevation
Unknown
Doppler factor
Unknown
Orbital elements
Apogee altitude
540.858 km
Perigee altitude
539.147 km
Semi-major axis
6,918.14 km
Eccentricity
0.00012
Inclination
53.2159°
RAAN
183.1306°
Arg. of periapsis
88.1663°
True anomaly
271.93294°
Mean anomaly
271.9471°
Eccentric anomaly
271.94002°
Mean motion
3.77189 °/min
Orbital period
95.44 mins
BSTAR
-0.000035926
Loading maneuver chart data...
Computing Atmospheric mass density...
Loading historical data...
Loading historical data...
Loading historical data...
Loading historical data...
Loading historical data...
Loading historical data...
Loading historical data...

Documentation

Showing up to 5 results
|